sat.trackr.live / text

‹ back to catalog

STARLINK-34396

NORAD 64436 · 2025-129AA

PAYLOAD ACTIVE UNKNOWN

§ Identity

Operator
Country
US
Launch date
2025-06-17
Launch site
AFWTR
Launch vehicle
Mass (kg)
RCS (m²)

Purposes: comms

External: N2YO · Heavens-Above · Gunter

§ Orbital elements

Epoch: 2026-09-20T12:24:51.072192Z

Period
94.14 min
Inclination
69.9999°
Eccentricity
0.0003628
Mean motion
15.29583670 rev/d
Perigee alt
474.6 km
Apogee alt
479.5 km
Semi-major
6,855.2 km
B*
3.9120e-4
RAAN
301.1022°
Arg perigee
273.7077°
Mean anomaly
86.3683°
Rev number
7,046

§ Raw data

STARLINK-343961 64436U 25129AA  26263.51725778  .00011136  00000+0  39120-3 0  99922 64436  69.9999 301.1022 0003628 273.7077  86.3683 15.29583670 70464

JSON: /api/v1/satellites/64436 · /tle

For live sub-satellite position, see the globe view (requires WebGL).

§ Visibility from observer

Set your observer location to see the next 7 days of passes ≥ 10°. The values pass through the URL so the page stays shareable.

No JS? Fill the form by hand. The geolocation button needs JavaScript.